SWA734 KDAL-KSMF

Flight info

Callsign SWA734
Flight time 3h 46m
Altitude 32000
Route SNSET4 HUDAD PNH TAHIB BCE ILC J198 MVA CRASY SLMMR5
Aircraft B737/M-SADE2E3GIJ4RWZ/LB1D1

Departure

Time 2026-05-04 23:58
Airport Dallas Love Field (KDAL)

Arrival

Time 2026-05-05 03:44
Airport Sacramento International Airport (KSMF)
Time Latitude Longitude Altitude Speed Heading
2026-05-04 23:35 32.84561 -96.84874 481 ft 0 kts
2026-05-04 23:48 32.84560 -96.84874 481 ft 1 kts
2026-05-04 23:48 32.84544 -96.84872 473 ft 3 kts 351°
2026-05-04 23:48 32.84529 -96.84870 476 ft 3 kts 347°
2026-05-04 23:48 32.84517 -96.84864 474 ft 3 kts 285°
2026-05-04 23:49 32.84514 -96.84843 473 ft 2 kts 281°
2026-05-04 23:49 32.84511 -96.84824 475 ft 3 kts 281°
2026-05-04 23:49 32.84509 -96.84800 477 ft 3 kts 265°
2026-05-04 23:49 32.84510 -96.84778 474 ft 2 kts 270°
2026-05-04 23:50 32.84510 -96.84775 473 ft 1 kts 270°
2026-05-04 23:52 32.84511 -96.84776 473 ft 1 kts 283°
2026-05-04 23:52 32.84518 -96.84773 477 ft 1 kts 22°
2026-05-04 23:52 32.84518 -96.84743 475 ft 10 kts 90°
2026-05-04 23:53 32.84563 -96.84647 481 ft 16 kts 45°
2026-05-04 23:53 32.84658 -96.84692 474 ft 18 kts 315°
2026-05-04 23:53 32.84739 -96.84821 479 ft 21 kts 276°
2026-05-04 23:53 32.84748 -96.85004 481 ft 23 kts 270°
2026-05-04 23:54 32.84747 -96.85207 481 ft 26 kts 270°
2026-05-04 23:54 32.84827 -96.85316 478 ft 20 kts 352°
2026-05-04 23:54 32.84882 -96.85396 475 ft 5 kts 287°
2026-05-04 23:54 32.84861 -96.85433 477 ft 9 kts 212°
2026-05-04 23:55 32.84791 -96.85446 475 ft 10 kts 185°
2026-05-04 23:55 32.84720 -96.85454 474 ft 11 kts 185°
2026-05-04 23:55 32.84691 -96.85574 478 ft 23 kts 317°
2026-05-04 23:56 32.84851 -96.85761 476 ft 37 kts 315°
2026-05-04 23:56 32.85028 -96.85967 481 ft 34 kts 316°
2026-05-04 23:56 32.85189 -96.86154 481 ft 27 kts 315°
2026-05-04 23:56 32.85218 -96.86193 481 ft 1 kts 292°
2026-05-04 23:57 32.85194 -96.86248 477 ft 14 kts 229°
2026-05-04 23:57 32.85118 -96.86318 478 ft 5 kts 167°
2026-05-04 23:57 32.85073 -96.86272 481 ft 29 kts 136°
2026-05-04 23:57 32.84749 -96.85894 481 ft 99 kts 136°
2026-05-04 23:58 32.84104 -96.85159 483 ft 154 kts 140°
2026-05-04 23:58 32.83224 -96.84206 695 ft 182 kts 142°
2026-05-04 23:58 32.82364 -96.83193 1541 ft 161 kts 138°
2026-05-04 23:58 32.81695 -96.82225 2192 ft 157 kts 136°
2026-05-04 23:59 32.80968 -96.81127 2505 ft 184 kts 136°
2026-05-04 23:59 32.80101 -96.79846 2757 ft 213 kts 136°
2026-05-04 23:59 32.79105 -96.78395 3011 ft 239 kts 135°
2026-05-04 23:59 32.77786 -96.77206 3492 ft 241 kts 167°
2026-05-05 00:00 32.76137 -96.77241 4191 ft 241 kts 201°
2026-05-05 00:00 32.75623 -96.77517 4446 ft 243 kts 210°
2026-05-05 00:00 32.73794 -96.80055 5637 ft 255 kts 248°
2026-05-05 00:00 32.73330 -96.82085 6524 ft 254 kts 257°
2026-05-05 00:01 32.72990 -96.84167 7253 ft 259 kts 259°
2026-05-05 00:01 32.72664 -96.86275 8110 ft 260 kts 259°
2026-05-05 00:01 32.72326 -96.88406 8933 ft 265 kts 260°
2026-05-05 00:01 32.71975 -96.90561 9848 ft 266 kts 260°
2026-05-05 00:02 32.71611 -96.92754 10457 ft 279 kts 260°
2026-05-05 00:02 32.71216 -96.95097 10635 ft 306 kts 260°
2026-05-05 00:02 32.70775 -96.97687 10840 ft 331 kts 259°
2026-05-05 00:02 32.70303 -97.00427 11253 ft 344 kts 259°
2026-05-05 00:03 32.69818 -97.03233 11948 ft 348 kts 260°
2026-05-05 00:03 32.69323 -97.06061 12742 ft 350 kts 260°
2026-05-05 00:03 32.68822 -97.08895 13444 ft 353 kts 260°
2026-05-05 00:03 32.68315 -97.11760 14109 ft 356 kts 260°
2026-05-05 00:04 32.67802 -97.14652 14795 ft 359 kts 261°
2026-05-05 00:04 32.67288 -97.17556 15488 ft 361 kts 261°
2026-05-05 00:04 32.66768 -97.20489 16169 ft 364 kts 261°
2026-05-05 00:04 32.66601 -97.23433 16775 ft 364 kts 277°
2026-05-05 00:05 32.67167 -97.26358 17459 ft 366 kts 290°
2026-05-05 00:05 32.68351 -97.29033 18082 ft 370 kts 304°
2026-05-05 00:05 32.69943 -97.31453 18653 ft 371 kts 307°
2026-05-05 00:05 32.71598 -97.33802 19341 ft 370 kts 308°
2026-05-05 00:06 32.73259 -97.36125 20001 ft 369 kts 308°
2026-05-05 00:06 32.74912 -97.38450 20606 ft 368 kts 308°
2026-05-05 00:06 32.76556 -97.40784 21191 ft 369 kts 307°
2026-05-05 00:06 32.78195 -97.43131 21779 ft 368 kts 307°
2026-05-05 00:07 32.79828 -97.45483 22328 ft 369 kts 307°
2026-05-05 00:07 32.81457 -97.47837 22863 ft 369 kts 307°
2026-05-05 00:07 32.83089 -97.50202 23357 ft 369 kts 307°
2026-05-05 00:07 32.84723 -97.52570 23739 ft 370 kts 307°
2026-05-05 00:08 32.86361 -97.54949 24070 ft 372 kts 307°
2026-05-05 00:08 32.88009 -97.57343 24595 ft 375 kts 307°
2026-05-05 00:08 32.89644 -97.59719 24933 ft 377 kts 306°
2026-05-05 00:08 32.91306 -97.62135 25268 ft 379 kts 306°
2026-05-05 00:09 32.92988 -97.64582 25581 ft 381 kts 306°
2026-05-05 00:09 32.94671 -97.67030 25892 ft 383 kts 306°
2026-05-05 00:09 32.96361 -97.69492 26196 ft 385 kts 306°
2026-05-05 00:09 32.98031 -97.71994 26492 ft 386 kts 303°
2026-05-05 00:10 32.99468 -97.74653 26785 ft 386 kts 297°
2026-05-05 00:10 33.00625 -97.77541 27065 ft 387 kts 293°
2026-05-05 00:10 33.01714 -97.80483 27340 ft 389 kts 293°
2026-05-05 00:10 33.02808 -97.83440 27642 ft 389 kts 293°
2026-05-05 00:11 33.03901 -97.86383 27883 ft 387 kts 293°
2026-05-05 00:11 33.04990 -97.89306 28382 ft 385 kts 293°
2026-05-05 00:11 33.06077 -97.92217 28872 ft 383 kts 293°
2026-05-05 00:11 33.07156 -97.95106 29359 ft 381 kts 293°
2026-05-05 00:12 33.08233 -97.97991 29847 ft 379 kts 293°
2026-05-05 00:12 33.09304 -98.00858 30306 ft 377 kts 293°
2026-05-05 00:12 33.10006 -98.02741 30630 ft 374 kts 293°
2026-05-05 00:12 33.11060 -98.05569 31114 ft 371 kts 293°
2026-05-05 00:13 33.12449 -98.09298 31647 ft 370 kts 293°
2026-05-05 00:13 33.14205 -98.14025 31740 ft 373 kts 293°
2026-05-05 00:14 33.16306 -98.19680 31743 ft 371 kts 293°
2026-05-05 00:14 33.18380 -98.25272 31734 ft 370 kts 293°
2026-05-05 00:15 33.20465 -98.30889 31737 ft 369 kts 293°
2026-05-05 00:15 33.22545 -98.36503 31740 ft 368 kts 293°
2026-05-05 00:16 33.24606 -98.42074 31739 ft 368 kts 293°
2026-05-05 00:16 33.26671 -98.47669 31735 ft 368 kts 292°
2026-05-05 00:17 33.28736 -98.53272 31740 ft 368 kts 292°
2026-05-05 00:17 33.30803 -98.58889 31727 ft 369 kts 292°
2026-05-05 00:18 33.32869 -98.64515 31726 ft 370 kts 292°
2026-05-05 00:18 33.34936 -98.70153 31714 ft 370 kts 292°
2026-05-05 00:19 33.37005 -98.75803 31703 ft 371 kts 292°
2026-05-05 00:19 33.39073 -98.81463 31694 ft 371 kts 292°
2026-05-05 00:20 33.41143 -98.87138 31687 ft 372 kts 292°
2026-05-05 00:20 33.43212 -98.92820 31680 ft 372 kts 292°
2026-05-05 00:21 33.45270 -98.98480 31677 ft 373 kts 292°
2026-05-05 00:21 33.47337 -99.04177 31674 ft 373 kts 292°
2026-05-05 00:22 33.49402 -99.09877 31665 ft 373 kts 292°
2026-05-05 00:22 33.51463 -99.15577 31660 ft 373 kts 292°
2026-05-05 00:23 33.53520 -99.21275 31651 ft 372 kts 292°
2026-05-05 00:23 33.55572 -99.26969 31652 ft 372 kts 292°
2026-05-05 00:24 33.57608 -99.32628 31644 ft 371 kts 291°
2026-05-05 00:24 33.59654 -99.38326 31640 ft 371 kts 291°
2026-05-05 00:25 33.62064 -99.43811 31654 ft 374 kts 300°
2026-05-05 00:25 33.65371 -99.48675 31647 ft 377 kts 306°
2026-05-05 00:26 33.68872 -99.53388 31645 ft 377 kts 306°
2026-05-05 00:26 33.72343 -99.58070 31633 ft 377 kts 306°
2026-05-05 00:27 33.75825 -99.62794 31633 ft 377 kts 306°
2026-05-05 00:27 33.79296 -99.67519 31633 ft 377 kts 306°
2026-05-05 00:28 33.82764 -99.72251 31630 ft 377 kts 306°
2026-05-05 00:28 33.86209 -99.76959 31633 ft 377 kts 306°
2026-05-05 00:29 33.89675 -99.81702 31629 ft 377 kts 306°
2026-05-05 00:29 33.93143 -99.86454 31630 ft 377 kts 306°
2026-05-05 00:30 33.96608 -99.91208 31631 ft 377 kts 306°
2026-05-05 00:30 34.00046 -99.95931 31627 ft 377 kts 306°
2026-05-05 00:31 34.03497 -100.00678 31629 ft 377 kts 306°
2026-05-05 00:31 34.06948 -100.05433 31625 ft 377 kts 305°
2026-05-05 00:32 34.10399 -100.10193 31624 ft 376 kts 305°
2026-05-05 00:32 34.13853 -100.14964 31634 ft 376 kts 305°
2026-05-05 00:33 34.17299 -100.19729 31645 ft 376 kts 305°
2026-05-05 00:33 34.20713 -100.24458 31652 ft 375 kts 305°
2026-05-05 00:34 34.24141 -100.29212 31665 ft 375 kts 305°
2026-05-05 00:34 34.27568 -100.33971 31665 ft 375 kts 305°
2026-05-05 00:35 34.30987 -100.38726 31670 ft 374 kts 305°
2026-05-05 00:35 34.34397 -100.43474 31673 ft 374 kts 305°
2026-05-05 00:36 34.37807 -100.48229 31667 ft 374 kts 305°
2026-05-05 00:36 34.41194 -100.52959 31661 ft 374 kts 305°
2026-05-05 00:37 34.44602 -100.57723 31644 ft 374 kts 305°
2026-05-05 00:37 34.48006 -100.62490 31637 ft 374 kts 305°
2026-05-05 00:38 34.51411 -100.67263 31625 ft 374 kts 305°
2026-05-05 00:38 34.54818 -100.72046 31615 ft 374 kts 305°
2026-05-05 00:39 34.58203 -100.76804 31622 ft 374 kts 305°
2026-05-05 00:39 34.61611 -100.81602 31625 ft 375 kts 304°
2026-05-05 00:40 34.65016 -100.86402 31620 ft 375 kts 305°
2026-05-05 00:40 34.68399 -100.91177 31625 ft 375 kts 304°
2026-05-05 00:41 34.71804 -100.95989 31624 ft 375 kts 304°
2026-05-05 00:41 34.75210 -101.00812 31623 ft 375 kts 304°
2026-05-05 00:42 34.78587 -101.05598 31629 ft 375 kts 304°
2026-05-05 00:42 34.81991 -101.10430 31621 ft 375 kts 304°
2026-05-05 00:43 34.85392 -101.15264 31628 ft 375 kts 304°
2026-05-05 00:43 34.88785 -101.20093 31623 ft 375 kts 304°
2026-05-05 00:44 34.92178 -101.24930 31626 ft 375 kts 304°
2026-05-05 00:44 34.95543 -101.29732 31621 ft 375 kts 304°
2026-05-05 00:45 34.98925 -101.34566 31636 ft 375 kts 304°
2026-05-05 00:45 35.02308 -101.39408 31646 ft 374 kts 304°
2026-05-05 00:46 35.05684 -101.44247 31671 ft 374 kts 304°
2026-05-05 00:46 35.09063 -101.49097 31700 ft 374 kts 304°
2026-05-05 00:47 35.12412 -101.53911 31731 ft 374 kts 304°
2026-05-05 00:47 35.15777 -101.58756 31752 ft 373 kts 304°
2026-05-05 00:48 35.19137 -101.63598 31767 ft 373 kts 303°
2026-05-05 00:48 35.22377 -101.68535 31767 ft 368 kts 298°
2026-05-05 00:49 35.24727 -101.73990 31766 ft 362 kts 288°
2026-05-05 00:49 35.26429 -101.79788 31770 ft 362 kts 287°
2026-05-05 00:50 35.28102 -101.85619 31739 ft 363 kts 287°
2026-05-05 00:50 35.29783 -101.91460 31713 ft 364 kts 287°
2026-05-05 00:51 35.31461 -101.97274 31684 ft 364 kts 287°
2026-05-05 00:51 35.33154 -102.03136 31665 ft 365 kts 287°
2026-05-05 00:52 35.34844 -102.08998 31630 ft 365 kts 287°
2026-05-05 00:52 35.36527 -102.14844 31625 ft 365 kts 287°
2026-05-05 00:53 35.38215 -102.20721 31618 ft 366 kts 287°
2026-05-05 00:53 35.39900 -102.26600 31629 ft 365 kts 287°
2026-05-05 00:54 35.41585 -102.32489 31625 ft 365 kts 287°
2026-05-05 00:54 35.43264 -102.38372 31621 ft 366 kts 287°
2026-05-05 00:55 35.44933 -102.44233 31628 ft 365 kts 286°
2026-05-05 00:55 35.46606 -102.50118 31626 ft 365 kts 286°
2026-05-05 00:56 35.48277 -102.56012 31632 ft 365 kts 286°
2026-05-05 00:56 35.49947 -102.61911 31627 ft 365 kts 286°
2026-05-05 00:57 35.51611 -102.67804 31621 ft 365 kts 286°
2026-05-05 00:57 35.53271 -102.73692 31626 ft 364 kts 286°
2026-05-05 00:58 35.54925 -102.79575 31625 ft 364 kts 286°
2026-05-05 00:58 35.56575 -102.85456 31620 ft 364 kts 286°
2026-05-05 00:59 35.58219 -102.91327 31615 ft 364 kts 286°
2026-05-05 00:59 35.59863 -102.97210 31609 ft 364 kts 286°
2026-05-05 01:00 35.61497 -103.03073 31606 ft 364 kts 286°
2026-05-05 01:00 35.63135 -103.08959 31611 ft 364 kts 285°
2026-05-05 01:01 35.64495 -103.13858 31608 ft 364 kts 285°
2026-05-05 01:01 35.66127 -103.19749 31615 ft 364 kts 285°
2026-05-05 01:02 35.67758 -103.25647 31615 ft 365 kts 285°
2026-05-05 01:02 35.69388 -103.31556 31616 ft 365 kts 285°
2026-05-05 01:03 35.71015 -103.37465 31613 ft 365 kts 285°
2026-05-05 01:03 35.72643 -103.43393 31611 ft 365 kts 285°
2026-05-05 01:04 35.74256 -103.49276 31608 ft 365 kts 285°
2026-05-05 01:04 35.76688 -103.58175 31611 ft 366 kts 285°
2026-05-05 01:05 35.78311 -103.64128 31615 ft 366 kts 285°
2026-05-05 01:05 35.79921 -103.70048 31609 ft 367 kts 285°
2026-05-05 01:06 35.81540 -103.76012 31614 ft 367 kts 285°
2026-05-05 01:06 35.83158 -103.81987 31613 ft 367 kts 285°
2026-05-05 01:07 35.84770 -103.87952 31614 ft 367 kts 285°
2026-05-05 01:07 35.86381 -103.93929 31612 ft 367 kts 285°
2026-05-05 01:08 35.87988 -103.99907 31619 ft 367 kts 285°
2026-05-05 01:08 35.89592 -104.05883 31617 ft 367 kts 284°
2026-05-05 01:09 35.91187 -104.11840 31623 ft 367 kts 284°
2026-05-05 01:09 35.92787 -104.17829 31626 ft 367 kts 284°
2026-05-05 01:10 35.94385 -104.23826 31637 ft 368 kts 284°
2026-05-05 01:10 35.95981 -104.29824 31631 ft 368 kts 284°
2026-05-05 01:11 35.97577 -104.35844 31640 ft 370 kts 284°
2026-05-05 01:11 35.99172 -104.41863 31637 ft 371 kts 284°
2026-05-05 01:12 36.00772 -104.47920 31640 ft 371 kts 284°
2026-05-05 01:12 36.02368 -104.53979 31646 ft 370 kts 284°
2026-05-05 01:13 36.03962 -104.60040 31657 ft 370 kts 284°
2026-05-05 01:13 36.05540 -104.66059 31660 ft 370 kts 284°
2026-05-05 01:14 36.07126 -104.72117 31663 ft 370 kts 284°
2026-05-05 01:14 36.08707 -104.78172 31672 ft 370 kts 284°
2026-05-05 01:15 36.10283 -104.84226 31679 ft 370 kts 284°
2026-05-05 01:15 36.11858 -104.90286 31692 ft 370 kts 284°
2026-05-05 01:16 36.13424 -104.96327 31703 ft 371 kts 284°
2026-05-05 01:16 36.14999 -105.02414 31736 ft 371 kts 284°
2026-05-05 01:17 36.16574 -105.08517 31794 ft 372 kts 284°
2026-05-05 01:17 36.18144 -105.14615 31850 ft 372 kts 284°
2026-05-05 01:18 36.19705 -105.20693 31894 ft 373 kts 284°
2026-05-05 01:18 36.21275 -105.26824 31931 ft 373 kts 283°
2026-05-05 01:19 36.22842 -105.32954 31943 ft 373 kts 283°
2026-05-05 01:19 36.24408 -105.39094 31961 ft 373 kts 283°
2026-05-05 01:20 36.25966 -105.45218 31949 ft 372 kts 283°
2026-05-05 01:20 36.27520 -105.51341 31915 ft 371 kts 283°
2026-05-05 01:21 36.29051 -105.57388 31892 ft 370 kts 283°
2026-05-05 01:21 36.30584 -105.63456 31842 ft 368 kts 283°
2026-05-05 01:22 36.32105 -105.69493 31803 ft 366 kts 283°
2026-05-05 01:22 36.33618 -105.75515 31788 ft 366 kts 283°
2026-05-05 01:23 36.35129 -105.81542 31772 ft 365 kts 283°
2026-05-05 01:23 36.36636 -105.87565 31773 ft 365 kts 283°
2026-05-05 01:24 36.38141 -105.93598 31782 ft 366 kts 283°
2026-05-05 01:24 36.39643 -105.99632 31783 ft 368 kts 283°
2026-05-05 01:25 36.41158 -106.05734 31777 ft 371 kts 283°
2026-05-05 01:25 36.42677 -106.11868 31780 ft 372 kts 283°
2026-05-05 01:26 36.44196 -106.18013 31798 ft 373 kts 282°
2026-05-05 01:26 36.45720 -106.24192 31790 ft 374 kts 282°
2026-05-05 01:27 36.47243 -106.30387 31800 ft 375 kts 282°
2026-05-05 01:27 36.48766 -106.36592 31802 ft 376 kts 282°
2026-05-05 01:28 36.50279 -106.42776 31811 ft 376 kts 282°
2026-05-05 01:28 36.51799 -106.49001 31815 ft 376 kts 282°
2026-05-05 01:29 36.53313 -106.55218 31814 ft 375 kts 281°
2026-05-05 01:29 36.54819 -106.61417 31810 ft 373 kts 281°
2026-05-05 01:30 36.56314 -106.67588 31812 ft 372 kts 281°
2026-05-05 01:30 36.57801 -106.73745 31815 ft 371 kts 281°
2026-05-05 01:31 36.59272 -106.79848 31823 ft 370 kts 281°
2026-05-05 01:31 36.60749 -106.85992 31822 ft 370 kts 281°
2026-05-05 01:32 36.62222 -106.92136 31813 ft 370 kts 281°
2026-05-05 01:32 36.63692 -106.98282 31816 ft 370 kts 281°
2026-05-05 01:33 36.65159 -107.04433 31815 ft 371 kts 281°
2026-05-05 01:33 36.66630 -107.10611 31816 ft 371 kts 281°
2026-05-05 01:34 36.68096 -107.16787 31815 ft 372 kts 281°
2026-05-05 01:34 36.69550 -107.22927 31821 ft 372 kts 280°
2026-05-05 01:35 36.71016 -107.29135 31813 ft 373 kts 280°
2026-05-05 01:35 36.72480 -107.35350 31819 ft 373 kts 280°
2026-05-05 01:36 36.73942 -107.41572 31816 ft 374 kts 280°
2026-05-05 01:36 36.75392 -107.47761 31817 ft 374 kts 280°
2026-05-05 01:37 36.76852 -107.54005 31812 ft 375 kts 280°
2026-05-05 01:37 36.78311 -107.60268 31811 ft 376 kts 280°
2026-05-05 01:38 36.79772 -107.66550 31819 ft 377 kts 280°
2026-05-05 01:38 36.81221 -107.72795 31827 ft 378 kts 280°
2026-05-05 01:39 36.82683 -107.79118 31837 ft 379 kts 280°
2026-05-05 01:39 36.84142 -107.85443 31832 ft 379 kts 279°
2026-05-05 01:40 36.85591 -107.91739 31845 ft 379 kts 279°
2026-05-05 01:40 36.87042 -107.98063 31858 ft 378 kts 279°
2026-05-05 01:41 36.88487 -108.04380 31869 ft 378 kts 279°
2026-05-05 01:41 36.89930 -108.10701 31884 ft 378 kts 279°
2026-05-05 01:42 36.91373 -108.17043 31880 ft 378 kts 279°
2026-05-05 01:42 36.92809 -108.23371 31880 ft 378 kts 279°
2026-05-05 01:43 36.94242 -108.29699 31872 ft 378 kts 279°
2026-05-05 01:43 36.95661 -108.35986 31860 ft 377 kts 279°
2026-05-05 01:44 36.97086 -108.42318 31830 ft 378 kts 279°
2026-05-05 01:44 36.98509 -108.48656 31817 ft 379 kts 279°
2026-05-05 01:45 36.99923 -108.54970 31812 ft 379 kts 278°
2026-05-05 01:45 37.01346 -108.61341 31827 ft 380 kts 278°
2026-05-05 01:46 37.02766 -108.67724 31824 ft 380 kts 278°
2026-05-05 01:46 37.04184 -108.74106 31819 ft 380 kts 278°
2026-05-05 01:47 37.05595 -108.80496 31818 ft 379 kts 278°
2026-05-05 01:47 37.06877 -108.86882 31804 ft 378 kts 277°
2026-05-05 01:48 37.08112 -108.93273 31788 ft 377 kts 276°
2026-05-05 01:48 37.09341 -108.99620 31758 ft 377 kts 276°
2026-05-05 01:49 37.10584 -109.06016 31761 ft 377 kts 276°
2026-05-05 01:49 37.11617 -109.11329 31757 ft 378 kts 276°
2026-05-05 01:50 37.12857 -109.17722 31754 ft 377 kts 276°
2026-05-05 01:50 37.14095 -109.24118 31757 ft 377 kts 276°
2026-05-05 01:51 37.15326 -109.30503 31752 ft 377 kts 276°
2026-05-05 01:51 37.16556 -109.36901 31761 ft 377 kts 276°
2026-05-05 01:52 37.17776 -109.43261 31754 ft 377 kts 276°
2026-05-05 01:52 37.18998 -109.49659 31745 ft 378 kts 276°
2026-05-05 01:53 37.20219 -109.56066 31751 ft 378 kts 276°
2026-05-05 01:53 37.21440 -109.62498 31753 ft 379 kts 276°
2026-05-05 01:54 37.22651 -109.68892 31741 ft 379 kts 276°
2026-05-05 01:54 37.23865 -109.75326 31745 ft 378 kts 276°
2026-05-05 01:55 37.25074 -109.81752 31741 ft 379 kts 276°
2026-05-05 01:55 37.26280 -109.88188 31746 ft 378 kts 276°
2026-05-05 01:56 37.27482 -109.94616 31745 ft 378 kts 276°
2026-05-05 01:56 37.28679 -110.01041 31757 ft 378 kts 275°
2026-05-05 01:57 37.29864 -110.07432 31748 ft 378 kts 275°
2026-05-05 01:57 37.31064 -110.13910 31742 ft 378 kts 275°
2026-05-05 01:58 37.32244 -110.20303 31738 ft 378 kts 275°
2026-05-05 01:58 37.33428 -110.26743 31732 ft 378 kts 275°
2026-05-05 01:59 37.34608 -110.33175 31729 ft 377 kts 275°
2026-05-05 01:59 37.35782 -110.39603 31723 ft 376 kts 275°
2026-05-05 02:00 37.36952 -110.46021 31728 ft 376 kts 275°
2026-05-05 02:00 37.38115 -110.52436 31719 ft 377 kts 275°
2026-05-05 02:01 37.39271 -110.58825 31709 ft 377 kts 275°
2026-05-05 02:01 37.40431 -110.65263 31702 ft 377 kts 275°
2026-05-05 02:02 37.41588 -110.71698 31703 ft 377 kts 275°
2026-05-05 02:02 37.42744 -110.78150 31706 ft 377 kts 275°
2026-05-05 02:03 37.43890 -110.84587 31714 ft 377 kts 274°
2026-05-05 02:03 37.45029 -110.90988 31717 ft 378 kts 274°
2026-05-05 02:04 37.46174 -110.97447 31716 ft 378 kts 274°
2026-05-05 02:04 37.47319 -111.03902 31724 ft 378 kts 274°
2026-05-05 02:05 37.48459 -111.10381 31723 ft 379 kts 274°
2026-05-05 02:05 37.49597 -111.16864 31726 ft 379 kts 274°
2026-05-05 02:06 37.50735 -111.23371 31728 ft 380 kts 274°
2026-05-05 02:06 37.51863 -111.29838 31743 ft 380 kts 274°
2026-05-05 02:07 37.52996 -111.36357 31731 ft 380 kts 274°
2026-05-05 02:07 37.54123 -111.42865 31757 ft 380 kts 274°
2026-05-05 02:08 37.55250 -111.49397 31774 ft 384 kts 275°
2026-05-05 02:08 37.56374 -111.55977 31749 ft 383 kts 274°
2026-05-05 02:09 37.57498 -111.62500 31771 ft 379 kts 274°
2026-05-05 02:09 37.58600 -111.68934 31780 ft 377 kts 274°
2026-05-05 02:10 37.59699 -111.75400 31815 ft 377 kts 274°
2026-05-05 02:10 37.60796 -111.81875 31869 ft 378 kts 274°
2026-05-05 02:11 37.61893 -111.88379 31902 ft 379 kts 274°
2026-05-05 02:11 37.62988 -111.94892 31951 ft 379 kts 274°
2026-05-05 02:12 37.64629 -112.04673 32007 ft 380 kts 274°
2026-05-05 02:13 37.65719 -112.11201 32004 ft 379 kts 274°
2026-05-05 02:13 37.66795 -112.17670 32016 ft 379 kts 274°
2026-05-05 02:14 37.67875 -112.24190 32015 ft 380 kts 274°
2026-05-05 02:14 37.68999 -112.30730 31981 ft 383 kts 277°
2026-05-05 02:15 37.70739 -112.37185 31956 ft 390 kts 281°
2026-05-05 02:15 37.72567 -112.43653 31920 ft 391 kts 281°
2026-05-05 02:16 37.74386 -112.50143 31879 ft 392 kts 281°
2026-05-05 02:16 37.76183 -112.56608 31842 ft 393 kts 281°
2026-05-05 02:17 37.77986 -112.63129 31815 ft 393 kts 281°
2026-05-05 02:17 37.79785 -112.69657 31841 ft 393 kts 281°
2026-05-05 02:18 37.81585 -112.76205 31864 ft 395 kts 281°
2026-05-05 02:18 37.83387 -112.82782 31856 ft 396 kts 281°
2026-05-05 02:19 37.85190 -112.89373 31866 ft 396 kts 281°
2026-05-05 02:19 37.86980 -112.95930 31868 ft 396 kts 281°
2026-05-05 02:20 37.88777 -113.02533 31876 ft 397 kts 281°
2026-05-05 02:20 37.89641 -113.05715 31869 ft 397 kts 281°
2026-05-05 02:21 37.90985 -113.10673 31862 ft 397 kts 281°
2026-05-05 02:21 37.92769 -113.17264 31843 ft 398 kts 281°
2026-05-05 02:22 37.94564 -113.23916 31827 ft 399 kts 281°
2026-05-05 02:22 37.96361 -113.30593 31800 ft 401 kts 282°
2026-05-05 02:23 37.98159 -113.37289 31769 ft 402 kts 282°
2026-05-05 02:23 37.99963 -113.44025 31770 ft 403 kts 282°
2026-05-05 02:24 38.01758 -113.50743 31769 ft 405 kts 282°
2026-05-05 02:24 38.03565 -113.57528 31773 ft 407 kts 282°
2026-05-05 02:25 38.05376 -113.64345 31786 ft 409 kts 282°
2026-05-05 02:25 38.07192 -113.71198 31788 ft 411 kts 282°
2026-05-05 02:26 38.09015 -113.78093 31783 ft 412 kts 282°
2026-05-05 02:26 38.10833 -113.84994 31796 ft 413 kts 282°
2026-05-05 02:27 38.12648 -113.91898 31790 ft 415 kts 283°
2026-05-05 02:27 38.14475 -113.98868 31782 ft 417 kts 283°
2026-05-05 02:28 38.16307 -114.05873 31787 ft 417 kts 283°
2026-05-05 02:28 38.18135 -114.12887 31787 ft 419 kts 283°
2026-05-05 02:29 38.19966 -114.19929 31784 ft 420 kts 283°
2026-05-05 02:29 38.21784 -114.26945 31778 ft 420 kts 283°
2026-05-05 02:30 38.23609 -114.33999 31768 ft 420 kts 283°
2026-05-05 02:30 38.25236 -114.41106 31770 ft 414 kts 274°
2026-05-05 02:31 38.25983 -114.48359 31771 ft 414 kts 272°
2026-05-05 02:31 38.26679 -114.55629 31760 ft 414 kts 272°
2026-05-05 02:32 38.27391 -114.62898 31765 ft 414 kts 272°
2026-05-05 02:32 38.28111 -114.70136 31759 ft 415 kts 272°
2026-05-05 02:33 38.28830 -114.77328 31750 ft 404 kts 272°
2026-05-05 02:33 38.29536 -114.84451 31759 ft 406 kts 272°
2026-05-05 02:34 38.30237 -114.91600 31755 ft 408 kts 272°
2026-05-05 02:34 38.30934 -114.98743 31759 ft 409 kts 272°
2026-05-05 02:35 38.31634 -115.05946 31744 ft 409 kts 272°
2026-05-05 02:35 38.32330 -115.13148 31747 ft 408 kts 272°
2026-05-05 02:36 38.33018 -115.20323 31748 ft 407 kts 272°
2026-05-05 02:36 38.33697 -115.27452 31753 ft 407 kts 272°
2026-05-05 02:37 38.34375 -115.34620 31756 ft 408 kts 272°
2026-05-05 02:37 38.35049 -115.41807 31752 ft 409 kts 272°
2026-05-05 02:38 38.35608 -115.47790 31764 ft 409 kts 272°
2026-05-05 02:38 38.36277 -115.55016 31756 ft 412 kts 272°
2026-05-05 02:39 38.36948 -115.62284 31769 ft 414 kts 272°
2026-05-05 02:39 38.37618 -115.69592 31764 ft 416 kts 272°
2026-05-05 02:40 38.38393 -115.78116 31764 ft 417 kts 272°
2026-05-05 02:40 38.38944 -115.84220 31763 ft 414 kts 272°
2026-05-05 02:41 38.39592 -115.91406 31776 ft 404 kts 272°
2026-05-05 02:41 38.40226 -115.98557 31785 ft 408 kts 272°
2026-05-05 02:42 38.40863 -116.05777 31784 ft 410 kts 272°
2026-05-05 02:42 38.41498 -116.12993 31785 ft 412 kts 273°
2026-05-05 02:43 38.42131 -116.20257 31798 ft 413 kts 273°
2026-05-05 02:43 38.42759 -116.27541 31789 ft 414 kts 273°
2026-05-05 02:44 38.43383 -116.34856 31796 ft 415 kts 273°
2026-05-05 02:44 38.44004 -116.42183 31803 ft 415 kts 274°
2026-05-05 02:45 38.44621 -116.49518 31816 ft 416 kts 274°
2026-05-05 02:45 38.45238 -116.56892 31815 ft 419 kts 274°
2026-05-05 02:46 38.45848 -116.64250 31820 ft 421 kts 274°
2026-05-05 02:46 38.46460 -116.71689 31824 ft 422 kts 274°
2026-05-05 02:47 38.47073 -116.79194 31829 ft 424 kts 275°
2026-05-05 02:47 38.47680 -116.86682 31829 ft 425 kts 275°
2026-05-05 02:48 38.48280 -116.94149 31837 ft 426 kts 275°
2026-05-05 02:48 38.48880 -117.01690 31835 ft 427 kts 275°
2026-05-05 02:49 38.49479 -117.09267 31833 ft 429 kts 275°
2026-05-05 02:49 38.50075 -117.16876 31830 ft 431 kts 276°
2026-05-05 02:50 38.50669 -117.24519 31832 ft 433 kts 276°
2026-05-05 02:50 38.51258 -117.32149 31830 ft 435 kts 276°
2026-05-05 02:51 38.51847 -117.39853 31836 ft 436 kts 276°
2026-05-05 02:51 38.52432 -117.47572 31814 ft 437 kts 276°
2026-05-05 02:52 38.53013 -117.55316 31829 ft 438 kts 276°
2026-05-05 02:52 38.53587 -117.63031 31834 ft 439 kts 276°
2026-05-05 02:53 38.54161 -117.70814 31833 ft 440 kts 276°
2026-05-05 02:53 38.54730 -117.78602 31828 ft 441 kts 276°
2026-05-05 02:54 38.55294 -117.86400 31812 ft 441 kts 276°
2026-05-05 02:54 38.55854 -117.94207 31821 ft 440 kts 277°
2026-05-05 02:55 38.56405 -118.01948 31830 ft 440 kts 277°
2026-05-05 02:55 38.57128 -118.09714 31830 ft 439 kts 280°
2026-05-05 02:56 38.58154 -118.17401 31818 ft 438 kts 285°
2026-05-05 02:56 38.59748 -118.24906 31831 ft 437 kts 288°
2026-05-05 02:57 38.61385 -118.32407 31840 ft 438 kts 287°
2026-05-05 02:57 38.62952 -118.39968 31860 ft 440 kts 287°
2026-05-05 02:58 38.64480 -118.47505 31870 ft 441 kts 287°
2026-05-05 02:58 38.66019 -118.55106 31882 ft 441 kts 287°
2026-05-05 02:59 38.67553 -118.62702 31878 ft 440 kts 287°
2026-05-05 02:59 38.69083 -118.70304 31867 ft 441 kts 287°
2026-05-05 03:00 38.70602 -118.77875 31859 ft 442 kts 287°
2026-05-05 03:00 38.72129 -118.85518 31847 ft 443 kts 287°
2026-05-05 03:01 38.73654 -118.93174 31835 ft 443 kts 287°
2026-05-05 03:01 38.75174 -119.00836 31839 ft 443 kts 287°
2026-05-05 03:02 38.76688 -119.08492 31841 ft 444 kts 287°
2026-05-05 03:02 38.78199 -119.16163 31846 ft 444 kts 287°
2026-05-05 03:03 38.79696 -119.23799 31843 ft 444 kts 288°
2026-05-05 03:03 38.81197 -119.31479 31856 ft 444 kts 288°
2026-05-05 03:04 38.82694 -119.39167 31862 ft 444 kts 288°
2026-05-05 03:04 38.84186 -119.46857 31900 ft 445 kts 288°
2026-05-05 03:05 38.85676 -119.54567 31908 ft 445 kts 288°
2026-05-05 03:05 38.87163 -119.62291 31927 ft 445 kts 288°
2026-05-05 03:06 38.88633 -119.69957 31787 ft 448 kts 288°
2026-05-05 03:06 38.89385 -119.73875 31035 ft 454 kts 288°
2026-05-05 03:06 38.90136 -119.77812 30301 ft 455 kts 288°
2026-05-05 03:06 38.90885 -119.81750 29667 ft 453 kts 288°
2026-05-05 03:07 38.91630 -119.85676 29046 ft 451 kts 288°
2026-05-05 03:07 38.92370 -119.89584 28418 ft 449 kts 288°
2026-05-05 03:07 38.93106 -119.93473 27757 ft 448 kts 288°
2026-05-05 03:07 38.93842 -119.97362 27143 ft 454 kts 288°
2026-05-05 03:08 38.94598 -120.01355 26476 ft 461 kts 288°
2026-05-05 03:08 38.95355 -120.05373 25806 ft 463 kts 287°
2026-05-05 03:08 38.96106 -120.09381 25135 ft 460 kts 287°
2026-05-05 03:08 38.96854 -120.13379 24450 ft 459 kts 287°
2026-05-05 03:09 38.97598 -120.17363 23758 ft 458 kts 287°
2026-05-05 03:09 38.98337 -120.21321 23009 ft 453 kts 287°
2026-05-05 03:09 38.99066 -120.25238 22311 ft 446 kts 287°
2026-05-05 03:09 38.99783 -120.29082 21660 ft 438 kts 287°
2026-05-05 03:10 39.00501 -120.32843 21107 ft 429 kts 288°
2026-05-05 03:10 39.01209 -120.36504 20535 ft 426 kts 288°
2026-05-05 03:10 39.01924 -120.40194 19953 ft 422 kts 288°
2026-05-05 03:10 39.02633 -120.43859 19397 ft 419 kts 288°
2026-05-05 03:11 39.03328 -120.47475 18858 ft 416 kts 288°
2026-05-05 03:11 39.04017 -120.51072 18299 ft 413 kts 288°
2026-05-05 03:11 39.04704 -120.54668 17644 ft 410 kts 288°
2026-05-05 03:11 39.05382 -120.58221 17067 ft 406 kts 288°
2026-05-05 03:12 39.06043 -120.61693 16526 ft 402 kts 288°
2026-05-05 03:12 39.06702 -120.65168 15989 ft 398 kts 288°
2026-05-05 03:12 39.07138 -120.68679 15420 ft 400 kts 274°
2026-05-05 03:12 39.06712 -120.72217 14910 ft 402 kts 255°
2026-05-05 03:13 39.05840 -120.75622 14382 ft 399 kts 253°
2026-05-05 03:13 39.04929 -120.78973 13841 ft 395 kts 253°
2026-05-05 03:13 39.04210 -120.82337 13210 ft 387 kts 268°
2026-05-05 03:13 39.04305 -120.85729 12722 ft 372 kts 280°
2026-05-05 03:14 39.04662 -120.88958 12256 ft 364 kts 282°
2026-05-05 03:14 39.05069 -120.92168 12094 ft 367 kts 283°
2026-05-05 03:14 39.05487 -120.95376 12033 ft 354 kts 283°
2026-05-05 03:14 39.05878 -120.98399 12025 ft 333 kts 283°
2026-05-05 03:15 39.06240 -121.01254 12020 ft 313 kts 283°
2026-05-05 03:15 39.06574 -121.03950 12021 ft 297 kts 283°
2026-05-05 03:15 39.06894 -121.06560 12033 ft 294 kts 283°
2026-05-05 03:15 39.07211 -121.09161 12056 ft 295 kts 283°
2026-05-05 03:16 39.07530 -121.11782 12054 ft 297 kts 283°
2026-05-05 03:16 39.07846 -121.14379 12052 ft 298 kts 283°
2026-05-05 03:16 39.08166 -121.17018 12045 ft 299 kts 283°
2026-05-05 03:16 39.08487 -121.19659 12037 ft 299 kts 283°
2026-05-05 03:17 39.08808 -121.22306 12038 ft 299 kts 283°
2026-05-05 03:17 39.09131 -121.24957 12021 ft 298 kts 283°
2026-05-05 03:17 39.09453 -121.27599 12029 ft 298 kts 283°
2026-05-05 03:17 39.09772 -121.30233 12025 ft 298 kts 283°
2026-05-05 03:18 39.10091 -121.32867 12029 ft 297 kts 283°
2026-05-05 03:18 39.10408 -121.35499 12026 ft 297 kts 283°
2026-05-05 03:18 39.10725 -121.38123 12028 ft 296 kts 283°
2026-05-05 03:18 39.11040 -121.40744 12024 ft 296 kts 283°
2026-05-05 03:19 39.11666 -121.45979 12023 ft 296 kts 283°
2026-05-05 03:19 39.11978 -121.48596 12031 ft 296 kts 283°
2026-05-05 03:19 39.12292 -121.51220 12044 ft 296 kts 283°
2026-05-05 03:20 39.12602 -121.53816 12043 ft 296 kts 283°
2026-05-05 03:20 39.12916 -121.56440 12049 ft 297 kts 283°
2026-05-05 03:20 39.13215 -121.59072 12045 ft 298 kts 283°
2026-05-05 03:20 39.13529 -121.61770 11442 ft 312 kts 283°
2026-05-05 03:21 39.13612 -121.64587 10814 ft 324 kts 262°
2026-05-05 03:21 39.12651 -121.67247 10229 ft 336 kts 233°
2026-05-05 03:21 39.10861 -121.69093 9637 ft 340 kts 208°
2026-05-05 03:21 39.08571 -121.70019 8965 ft 333 kts 187°
2026-05-05 03:22 39.06302 -121.69868 8322 ft 324 kts 165°
2026-05-05 03:22 39.04182 -121.69041 7719 ft 314 kts 161°
2026-05-05 03:22 39.02138 -121.68139 7100 ft 307 kts 161°
2026-05-05 03:22 39.00142 -121.67244 6490 ft 301 kts 161°
2026-05-05 03:23 38.98184 -121.66377 5831 ft 294 kts 162°
2026-05-05 03:23 38.96287 -121.65547 5212 ft 288 kts 162°
2026-05-05 03:23 38.94403 -121.64732 4579 ft 283 kts 162°
2026-05-05 03:23 38.92551 -121.63936 3953 ft 278 kts 162°
2026-05-05 03:24 38.90749 -121.63164 3500 ft 267 kts 163°
2026-05-05 03:24 38.89013 -121.62422 3050 ft 258 kts 163°
2026-05-05 03:24 38.87899 -121.61947 2811 ft 251 kts 163°
2026-05-05 03:24 38.86269 -121.61252 2447 ft 243 kts 163°
2026-05-05 03:25 38.84685 -121.60578 2085 ft 236 kts 163°
2026-05-05 03:25 38.83130 -121.59927 1731 ft 234 kts 167°
2026-05-05 03:25 38.81533 -121.59798 1588 ft 222 kts 185°
2026-05-05 03:25 38.79621 -121.59916 2013 ft 202 kts 191°
2026-05-05 03:26 38.78745 -121.60378 2222 ft 205 kts 220°
2026-05-05 03:26 38.78039 -121.61937 2585 ft 211 kts 262°
2026-05-05 03:26 38.78353 -121.63754 2916 ft 217 kts 302°
2026-05-05 03:26 38.79370 -121.65216 3005 ft 223 kts 312°
2026-05-05 03:27 38.80444 -121.66604 3022 ft 222 kts 313°
2026-05-05 03:27 38.81530 -121.67996 3012 ft 219 kts 314°
2026-05-05 03:27 38.82856 -121.68883 3007 ft 215 kts 353°
2026-05-05 03:27 38.84230 -121.68433 3005 ft 203 kts 39°
2026-05-05 03:28 38.85032 -121.67013 3048 ft 194 kts 63°
2026-05-05 03:28 38.85668 -121.65493 3043 ft 192 kts 63°
2026-05-05 03:28 38.86305 -121.63974 3036 ft 193 kts 63°
2026-05-05 03:28 38.86938 -121.62448 3026 ft 193 kts 66°
2026-05-05 03:29 38.87051 -121.60802 3021 ft 185 kts 114°
2026-05-05 03:29 38.86222 -121.59613 3043 ft 182 kts 150°
2026-05-05 03:29 38.85115 -121.58725 2757 ft 198 kts 150°
2026-05-05 03:29 38.83880 -121.57959 2101 ft 195 kts 174°
2026-05-05 03:30 38.82614 -121.58160 1860 ft 179 kts 201°
2026-05-05 03:30 38.81496 -121.58804 1667 ft 171 kts 207°
2026-05-05 03:30 38.80489 -121.59441 1434 ft 153 kts 207°
2026-05-05 03:30 38.79576 -121.60005 1171 ft 141 kts 193°
2026-05-05 03:31 38.78592 -121.59949 1111 ft 144 kts 180°
2026-05-05 03:31 38.77593 -121.59956 1110 ft 141 kts 183°
2026-05-05 03:31 38.76611 -121.59979 1065 ft 145 kts 182°
2026-05-05 03:31 38.75614 -121.59959 1268 ft 147 kts 181°
2026-05-05 03:32 38.74452 -121.59935 1616 ft 177 kts 181°
2026-05-05 03:32 38.73208 -121.59909 1957 ft 179 kts 181°
2026-05-05 03:32 38.71947 -121.59880 2009 ft 182 kts 181°
2026-05-05 03:32 38.70680 -121.59849 2010 ft 181 kts 181°
2026-05-05 03:33 38.69526 -121.60302 2011 ft 175 kts 226°
2026-05-05 03:33 38.68998 -121.61681 2061 ft 184 kts 262°
2026-05-05 03:33 38.69203 -121.63360 2027 ft 199 kts 296°
2026-05-05 03:33 38.70199 -121.64570 2038 ft 206 kts 336°
2026-05-05 03:34 38.71605 -121.65029 2039 ft 209 kts 346°
2026-05-05 03:34 38.73023 -121.65392 2041 ft 211 kts 347°
2026-05-05 03:34 38.74470 -121.65755 2038 ft 212 kts 347°
2026-05-05 03:34 38.75896 -121.66109 2044 ft 206 kts 347°
2026-05-05 03:35 38.77300 -121.66457 2030 ft 206 kts 347°
2026-05-05 03:35 38.78709 -121.66804 2016 ft 207 kts 347°
2026-05-05 03:35 38.80123 -121.67153 2019 ft 207 kts 347°
2026-05-05 03:35 38.81538 -121.67504 2021 ft 207 kts 347°
2026-05-05 03:36 38.82955 -121.67855 2019 ft 207 kts 347°
2026-05-05 03:36 38.84375 -121.68207 2018 ft 208 kts 347°
2026-05-05 03:36 38.85795 -121.68557 2016 ft 208 kts 347°
2026-05-05 03:36 38.87215 -121.68909 2014 ft 206 kts 347°
2026-05-05 03:37 38.88595 -121.69251 1996 ft 195 kts 347°
2026-05-05 03:37 38.89904 -121.69572 2002 ft 190 kts 347°
2026-05-05 03:37 38.91175 -121.69883 2015 ft 188 kts 347°
2026-05-05 03:37 38.92470 -121.70161 2018 ft 190 kts 358°
2026-05-05 03:38 38.93657 -121.69530 2037 ft 190 kts 50°
2026-05-05 03:38 38.94096 -121.67965 2051 ft 192 kts 98°
2026-05-05 03:38 38.93540 -121.66458 2052 ft 187 kts 133°
2026-05-05 03:38 38.92694 -121.65185 2035 ft 187 kts 133°
2026-05-05 03:39 38.91805 -121.63975 2014 ft 184 kts 148°
2026-05-05 03:39 38.90642 -121.63366 2039 ft 182 kts 163°
2026-05-05 03:39 38.89438 -121.62820 2040 ft 184 kts 162°
2026-05-05 03:39 38.88228 -121.62262 2028 ft 184 kts 162°
2026-05-05 03:40 38.87074 -121.61729 1995 ft 169 kts 162°
2026-05-05 03:40 38.85989 -121.61231 2028 ft 175 kts 162°
2026-05-05 03:40 38.84811 -121.60692 2032 ft 181 kts 162°
2026-05-05 03:40 38.83647 -121.60185 2000 ft 170 kts 170°
2026-05-05 03:41 38.82526 -121.60045 2007 ft 156 kts 178°
2026-05-05 03:41 38.81465 -121.59973 2021 ft 153 kts 181°
2026-05-05 03:41 38.80396 -121.59965 1973 ft 155 kts 182°
2026-05-05 03:41 38.79338 -121.59976 1788 ft 146 kts 183°
2026-05-05 03:42 38.78374 -121.59990 1607 ft 136 kts 183°
2026-05-05 03:42 38.77431 -121.60006 1443 ft 137 kts 183°
2026-05-05 03:42 38.76473 -121.60021 1241 ft 137 kts 182°
2026-05-05 03:42 38.75518 -121.60036 1056 ft 137 kts 182°
2026-05-05 03:43 38.74564 -121.60055 868 ft 137 kts 182°
2026-05-05 03:43 38.73632 -121.60083 693 ft 131 kts 180°
2026-05-05 03:43 38.72731 -121.60096 461 ft 130 kts 179°
2026-05-05 03:43 38.71812 -121.60097 274 ft 134 kts 178°
2026-05-05 03:44 38.70911 -121.60110 110 ft 129 kts 176°
2026-05-05 03:44 38.70077 -121.60125 24 ft 103 kts 179°
2026-05-05 03:44 38.69579 -121.60127 22 ft 40 kts 180°
2026-05-05 03:44 38.69442 -121.60130 21 ft 14 kts 181°
2026-05-05 03:45 38.69345 -121.60132 21 ft 14 kts 181°
2026-05-05 03:45 38.69252 -121.60134 22 ft 13 kts 181°
2026-05-05 03:45 38.69165 -121.60135 23 ft 12 kts 180°
2026-05-05 03:45 38.69089 -121.60123 27 ft 10 kts 151°
2026-05-05 03:46 38.69058 -121.60032 23 ft 14 kts 91°
2026-05-05 03:46 38.69063 -121.59907 22 ft 13 kts 65°
2026-05-05 03:46 38.69141 -121.59873 23 ft 12 kts
2026-05-05 03:46 38.69218 -121.59871 22 ft 11 kts
2026-05-05 03:47 38.69292 -121.59870 22 ft 10 kts
2026-05-05 03:47 38.69361 -121.59869 25 ft 11 kts
2026-05-05 03:47 38.69449 -121.59867 22 ft 13 kts
2026-05-05 03:47 38.69540 -121.59866 22 ft 13 kts
2026-05-05 03:48 38.69628 -121.59865 22 ft 13 kts
2026-05-05 03:48 38.69702 -121.59859 22 ft 2 kts 39°
2026-05-05 03:48 38.69702 -121.59837 22 ft 6 kts 92°
2026-05-05 03:48 38.69701 -121.59731 22 ft 13 kts 90°
2026-05-05 03:49 38.69700 -121.59617 22 ft 13 kts 91°
2026-05-05 03:49 38.69699 -121.59507 22 ft 12 kts 90°
2026-05-05 03:49 38.69687 -121.59418 24 ft 6 kts 144°
2026-05-05 03:49 38.69659 -121.59412 22 ft 4 kts 179°
2026-05-05 03:50 38.69628 -121.59412 22 ft 0 kts 180°